AirNav   Duncan Aviation - Near you to keep you flying
 
 967 users online  

VA71 Aden Field Airport
Manassas, Virginia, USA

GOING TO MANASSAS?


FAA INFORMATION EFFECTIVE 04 NOVEMBER 2021

Location

FAA Identifier: VA71
Lat/Long: 38-38-54.4290N 077-31-57.9560W
38-38.907150N 077-31.965933W
38.6484525,-77.5327656
(estimated)
Elevation: 210 ft. / 64 m (estimated)
Variation: 09W (1985)
From city: 8 miles SW of MANASSAS, VA
Time zone: UTC -4 (UTC -5 during Standard Time)
Zip code: 20181

Airport Operations

Airport use: Private use. Permission required prior to landing
Activation date: 06/1974
Control tower: no
ARTCC: WASHINGTON CENTER
FSS: LEESBURG FLIGHT SERVICE STATION
Attendance: UNATNDD
Wind indicator: yes
Segmented circle: no

Airport Communications

WX AWOS-3PT at HEF (4 nm N): PHONE 703-361-6160
WX AWOS-3 at HWY (9 nm SW): 120.350 (540-788-4078)
WX AWOS-3 at RMN (15 nm S): 126.325 (540-657-8283)
WX AWOS-3 at CJR (17 nm SW): 119.325 (540-727-0523)
WX ASOS at IAD (18 nm N): PHONE 703-661-2990

Nearby radio navigation aids

VOR radial/distance  VOR name  Freq  Var
CSNr094/15.6CASANOVA VORTAC116.3006W
AMLr198/17.4ARMEL VOR/DME113.5008W
BRVr345/20.5BROOKE VORTAC114.5009W
DCAr250/26.5WASHINGTON VOR/DME111.0009W
ADWr263/32.6ANDREWS VORTAC113.1010W
LDNr117/33.8LINDEN VORTAC114.3006W
OTTr275/37.1NOTTINGHAM VORTAC113.7010W

 
NDB name  Hdg/Dist  Freq  Var  ID
DAVEE277/19.822309WDAA -.. .- .-
NAILR066/21.035110WMSQ -- ... --.-
SHANNON000/23.223710WEZF . --.. ..-.
OXONN264/24.733211WDCA -.. -.-. .-
GEORGETOWN238/25.532309WGTN --. - -.

Airport Services

Airframe service: NONE
Powerplant service: NONE

Runway Information

Runway 3/21

Dimensions: 2000 x 100 ft. / 610 x 30 m
Surface: turf
Operational restrictions: RWY 03/21 CLSD INDEFLY.
RUNWAY 3  RUNWAY 21
Traffic pattern: rightright
Obstructions: treesnone

Airport Ownership and Management from official FAA records

Ownership: Privately-owned
Owner: ALLAN D. CORS
7413 GEORGETOWN CT
MCLEAN, VA 22102
Phone 703-827-0735
Manager: 13906 ADEN RD
NOKESVILLE, VA 22123
Phone 703-594-3030

Airport Operational Statistics

Aircraft based on the field: 1
Single engine airplanes: 1
    

Additional Remarks

OWNER DESIRES ARPT NOT BE CHARTED.
FOR CD CTC POTOMAC APCH AT 866-709-4993.

Instrument Procedures

There are no published instrument procedures at VA71.

Some nearby airports with instrument procedures:

KHEF - Manassas Regional Airport/Harry P. Davis Field (4 nm N)
KHWY - Warrenton-Fauquier Airport (9 nm SW)
KNYG - Quantico Marine Corps Airfield / Turner Field (14 nm SE)
KRMN - Stafford Regional Airport (15 nm S)
KDAA - Davison Army Airfield (17 nm E)
KCJR - Culpeper Regional Airport (17 nm SW)
KIAD - Washington Dulles International Airport (18 nm N)
 
Loc | Ops | Rwys | IFR | FBO | Links
Com | Nav | Svcs | Stats | Notes
Area around VA71 (Aden Field Airport)
 
Road maps at: MapQuest Bing Google
 
Aerial photo
No photo
 
Sectional chart

 
Airport distance calculator
Flying to Aden Field Airport? Find the distance to fly.

From to VA71

Sunrise and sunset
Times for 30-Nov-2021
 Local
(UTC-5)
 Zulu
(UTC)
Morning civil twilight06:4011:40
Sunrise07:0912:09
Sunset16:4921:49
Evening civil twilight17:1822:18

Current date and time
Zulu (UTC)  01-Dec-2021 04:32:31
Local (UTC-5)  30-Nov-2021 23:32:31
 
METAR
KHEF 
4nm N 
010356Z AUTO 00000KT 10SM CLR M03/M04 A3002 RMK AO2 SLP172 T10331044 401281044 FZRANO
KHWY 
9nm SW 
010415Z AUTO 00000KT 10SM CLR M04/M05 A3001 RMK AO2 T10411055
KNYG 
15nm SE 
010356Z AUTO 28006KT 10SM CLR 02/M02 A3003 RMK AO2 SLP168 T00171017
KRMN 
15nm S 
010415Z AUTO 00000KT 10SM CLR 00/M03 A3005 RMK AO2 T00011027
KIAD 
18nm N 
010352Z 00000KT 10SM CLR M01/M04 A3000 RMK AO2 SLP161 T10111039
KDAA 
18nm E 
010356Z AUTO 00000KT 10SM CLR M02/M04 A3001 RMK AO2 SLP166 T10181038 $
TAF
KNYG 
15nm SE 
3021/0121 23010G18KT 9999 SKC QNH2993INS FM010000 VRB06KT 9999 SKC QNH3000INS BECMG 0118/0120 19009KT 9999 BKN040 OVC060 QNH3014INS TM01/0112Z T10/0120Z LAST NO AMENDS UNTIL 0109
KIAD 
18nm N 
010244Z 0103/0206 25004KT P6SM SCT250 FM011100 29005KT P6SM SCT250 FM012100 18004KT P6SM OVC080
KDAA 
18nm E 
302100Z 3021/0203 VRB06KT 9999 FEW070 QNH2990INS BECMG 3023/3024 VRB06KT 9999 SKC QNH2996INS BECMG 0105/0106 VRB06KT 9999 FEW250 QNH3002INS TX11/0117Z TN02/0111Z LAST NO AMDS AFT 0102 NEXT 0113
NOTAMs
Click for the latest NOTAMs
NOTAMs are issued by the DoD/FAA and will open in a separate window not controlled by AirNav.

 

 
 

Would you like to see your business listed on this page?

 If your business provides an interesting product or service to pilots, flight crews, aircraft, or users of the Aden Field Airport, you should consider listing it here.  To start the listing process, click on the button below
 
Add a business
 

Other Pages about Aden Field Airport

Update a link
 
Copyright © AirNav, LLC. All rights reserved. Privacy Policy  Contact